Location: Palomar Mountain Lodge
(33.3110°N, 116.8495°W)
Time: 14:30:48
(UTC-08:00)

Nadezhda 1 Rocket - Pass Details

Date: 12 July 2018
Orbit: 941 x 1005 km, 83.0° (Epoch: 12 November)

Event Time Altitude Azimuth Distance (km) Brightness Sun altitude
Exits shadow 21:43:11 13° 184° (S) 2,533 5.8 -18.7°
Maximum altitude 21:48:56 90° 260° (W) 999 4.0 -19.5°
Drops below altitude 10° 21:55:16 10° 6° (N) 2,745 6.9 -20.4°
Sets 21:57:46 0° 6° (N) 3,687 7.6 -20.8°
